Location: Staunton
(38.1490°N, 79.0720°W)
Time: 08:09:05
(UTC-04:00)

ISS - Pass Details

Date: 18 May 2018
Orbit: 402 x 407 km, 51.6° (Epoch: 25 May)

Event Time Altitude Azimuth Distance (km) Brightness Sun altitude
Rises 05:09:05 0° 316° (NW) 2,316 -0.1 -10.0°
Reaches altitude 10° 05:11:21 10° 329° (NNW) 1,455 -1.0 -9.6°
Maximum altitude 05:14:13 28° 31° (NNE) 793 -1.5 -9.2°
Drops below altitude 10° 05:17:05 10° 92° (E) 1,451 -0.1 -8.7°
Sets 05:19:21 0° 105° (ESE) 2,308 0.7 -8.3°
